HORYU 4

Satellite information

Favourite Embed

Satellite Type and Status

PAYLOADIN ORBIT

Key statistics

Satellite HORYU 4 at a glance.

Uptime

3492

Days in orbit

Revolutions

≈ 15.4

Per day

Orbit

LEO

Low Earth Orbit

Inclination

31.0

Latest

Satellite identification and parameters

Extended collection of information and parameters for HORYU 4.

Object identification

Identified? True

Debris? False

Object name: HORYU 4

International designator: 2016-012D

Object number (NORAD): 41340

Object ID (CCSDS): 41340

Country: JAPAN (JPN)

Current information (Y/N): Y

RCS size: MEDIUM

Orbital parameters

Period: 93.443 minutes

Inclination: 30.995 deg

SMA: 6821.18 km

Apoapsis: 447.566 km

Periapsis: 438.523 km

RAAN: 240.2327 deg

Eccentricy: 0.00066287

Argument of periapsis: 276.8394 deg

Mean anomaly: 83.1498 deg

Mean motion: 15.4103865 rev/day

Mean motion (dot): 0.00031744 rev/day2

B* drag term: 0.0007388679 1/REarth

Two-line elements (TLE)

Creation date: Sept. 8, 2025, 9:49 a.m.

Reference frame: TEME

Reference center: EARTH

Epoch: Sept. 8, 2025, 7 a.m. UTC

TLE line 0: 0 HORYU 4

TLE line 1: 1 41340U 16012D 25251.29225716 .00031744 00000-0 73887-3 0 9996

TLE line 2: 2 41340 30.9950 240.2327 0006629 276.8394 83.1498 15.41038650526775

Live tracking on map

Real-time ground track for satellite HORYU 4.

In-orbit conjunctions

There are no conjunctions computed for HORYU 4, at the moment. Check back to stay up to date, as we update our databases every day.

Go to all conjunctions

Associated space launch

Astro-H is the 6th satellite in a series of X-ray telescopes by JAXA and ISAS. Its 4 instruments on board will cover the X-ray and Gamma ray regions. This region consists of photons with energy ranging from 0.3-600keV, and the telescope will provide the highest resolution ever achieved of 3-10 keV bands. The craft weighs 2.7 tonnes and will be placed into a circular orbit 575km above the ground, with an inclination of 31 degrees.

HORYU 4 was lifted into orbit during the mission ‘H-IIA 202 | Astro-H (Hitomi)’, on board a H-IIA space rocket.

The launch took place on Feb. 17, 2016, 8:45 a.m. from Yoshinobu Launch Complex LP-1.

For more information about the launch, click the button.

Launch to space H-IIA 202 | Astro-H (Hitomi)
H-IIA 202 | Astro-H (Hitomi)

Agency: N/A

Status: Launch Successful

Launch date: Feb. 17, 2016, 8:45 a.m. UTC

Rocket: H-IIA

Launch pad: Yoshinobu Launch Complex LP-1

Location: Tanegashima Space Center, Japan

...

Latest news about this satellite

There are no fresh news available about this satellite. Check back as we update our databases every day.


Newsletter sign-up

Weekly statistics, charts and insights to help you stay on top of the space industry.